SCP
0 0 0 0 0 0 0 0 0 0 0 0 0 0 0 0 0 0 0 0 0 0 0 0 0 0 0 0 0 0 0 0 0 0 0 0 0 0 0 0 0 0 0
0 0 0 0 0 0 0 0 0 0 0 0 0 0 0 0 0 0 0 0 0 0 0 0 0 0 0 0 0 0 0 0 0 0 0 0 0 0 0 0 0 0 0
0 0 -0 -0 -0 -0 0 0 0 0 0 0 0 0 0 0 0 0 0 0 0 0 0 0 0 0 0 0 0 0 0 0 0 0 0 0 0 0 0 0 0 0 0
0 0 0 -0 -0 -0 -0 -0 -0 -0 0 0 0 0 0 0 0 0 0 0 0 0 0 0 0 0 0 0 0 0 0 0 0 0 0 0 0 0 0 0 0 0 0
0 0 0 0 0 0 0 0 0 0 0 0 0 0 0 0 0 0 0 0 0 0 0 0 0 0 0 0 0 0 0 0 0 0 0 0 0 0 0 0 0 0 0
0 0 0 0 0 0 0 0 0 0 0 0 0 0 0 0 0 0 0 0 0 0 0 0 0 0 0 0 0 0 0 0 0 0 0 0 0 0 0 0 0 0 0
0 0 0 0 0 0 0 0 0 0 0 0 0 0 0 0 0 0 0 0 0 0 0 0 0 0 0 0 0 0 0 0 0 0 0 0 0 0 0 0 0 0 0
0 -0 0 0 0 0 0 0 0 0 0 0 0 0 0 0 0 0 0 0 0 0 0 0 0 0 0 0 0 0 0 0 0 0 0 0 0 0 0 0 0 0 0
-0 -0 -0 0 0 0 0 0 0 0 0 0 0 0 0 0 0 0 0 0 0 0 0 0 0 0 0 0 0 0 0 0 0 0 0 0 0 0 0 0 0 0 0
-0 -0 -0 -0 0 0 0 0 0 0 0 0 0 0 0 0 0 0 0 0 0 0 0 0 0 0 0 0 0 0 0 0 0 0 0 0 0 0 0 0 0 0 0
-0 -0 -0 -0 -0 -0 0 0 0 0 0 0 0 0 0 0 0 0 0 0 0 0 0 0 0 0 0 0 0 0 0 0 0 0 0 0 0 0 0 0 0 0 0
-0 -0 -0 -0 -0 0 0 0 0 0 0 0 0 0 0 0 0 0 0 0 0 0 0 0 0 0 0 0 0 0 0 0 0 0 0 0 0 0 0 0 0 0 0
-0 -0 -0 0 0 0 0 0 0 0 0 0 0 0 0 0 0 0 0 0 0 0 0 0 0 0 0 0 0 0 0 0 0 0 0 0 0 0 0 0 0 0 0
0 0 0 0 0 0 0 0 0 0 0 0 0 0 0 0 0 0 0 0 0 0 0 0 0 0 0 0 0 0 0 0 0 0 0 0 0 0 0 0 0 0 0
0 0 0 0 0 0 0 0 0 0 0 0 0 0 0 0 0 0 0 0 0 0 0 0 0 0 0 0 0 0 0 0 0 0 0 0 0 0 0 0 0 0 0
0 0 0 0 0 0 0 0 0 0 0 0 0 0 0 0 0 0 0 0 0 0 0 0 0 0 0 0 0 0 0 0 0 0 0 0 0 0 0 0 0 0 0
0 0 0 0 0 0 0 0 0 0 0 0 0 0 0 0 0 0 0 0 0 0 0 0 0 0 0 0 0 0 0 0 0 0 0 0 0 0 0 0 0 0 0
0 0 0 0 0 0 0 0 0 0 0 0 0 0 0 0 0 0 0 0 0 0 0 0 0 0 0 0 0 0 0 0 0 0 0 0 0 0 0 0 0 0 0
0 0 0 0 0 0 0 0 0 0 0 0 0 0 0 0 0 0 0 0 0 0 0 0 0 0 0 0 0 0 0 0 0 0 0 0 0 0 0 0 0 0 0
0 0 0 0 0 0 0 0 0 0 0 0 0 0 0 0 0 0 0 0 0 0 0 0 0 0 0 0 0 0 0 0 0 0 0 0 0 0 0 0 0 0 0
0 0 0 0 0 0 0 0 0 0 0 0 0 0 0 0 0 0 0 0 0 0 0 0 0 0 0 0 0 0 0 0 0 0 0 0 0 0 0 0 0 0 0
0 0 0 0 0 0 0 0 0 0 0 0 0 0 0 0 0 0 0 0 0 0 0 0 0 0 0 0 0 0 0 0 0 0 0 0 0 0 0 0 0 0 0
0 0 0 0 0 0 0 0 0 0 0 0 0 0 0 0 0 0 0 0 0 0 0 0 0 0 0 0 0 0 0 0 0 0 0 0 0 0 0 0 0 0 0
0 0 0 0 0 0 0 0 0 0 0 0 0 0 0 0 0 0 0 0 0 0 0 0 0 0 0 0 0 0 0 0 0 0 0 0 0 0 0 0 0 0 0
0 0 0 0 0 0 0 0 0 0 0 0 0 0 0 0 0 0 0 0 0 0 0 0 0 0 0 0 0 0 0 0 0 0 0 0 0 0 0 0 0 0 0
0 0 0 0 0 0 0 0 0 0 0 0 0 0 0 0 0 0 0 0 0 0 0 0 0 0 0 0 0 0 0 0 0 0 0 0 0 0 0 0 0 0 0
Wind_Speed
3 3 3 3 3 3 4 4 4 3 3 2 2 2 1 0 0 1 1 1 1 1 1 1 1 1 1 2 3 2 3 3 2 3 4 5 7 8 8 8 8 9 10
2 2 2 2 2 3 3 3 4 4 3 2 2 2 2 1 1 1 1 2 2 2 2 2 2 2 2 3 2 2 2 2 2 2 2 3 3 4 7 7 8 9 7
5 4 3 2 2 3 3 3 3 3 2 2 2 2 2 2 1 1 2 2 2 2 2 3 3 3 2 3 3 2 2 3 3 3 3 2 3 3 3 5 6 7 6
3 4 4 4 4 4 3 2 2 1 1 1 1 2 2 1 2 2 2 3 3 3 3 3 3 3 3 3 4 3 2 3 3 3 3 4 3 3 3 2 3 5 6
4 5 5 5 4 3 2 2 1 0 0 0 1 1 1 2 2 2 3 4 4 4 4 4 3 3 3 4 4 3 3 2 3 2 2 3 3 4 4 4 2 2 4
4 4 4 3 2 2 2 2 2 1 1 1 1 1 3 3 3 4 3 3 3 4 5 4 4 4 3 4 4 4 4 3 3 3 2 2 2 2 3 4 3 3 2
4 4 4 3 3 3 2 2 2 2 2 1 2 2 3 3 4 4 4 4 3 3 5 4 4 4 4 5 4 4 4 4 4 3 3 3 3 2 2 3 3 3 2
4 4 4 4 3 3 2 2 2 2 1 1 2 2 2 2 3 4 4 4 4 5 5 5 5 6 5 5 4 4 5 4 5 5 4 3 3 2 2 2 2 2 2
4 4 3 2 2 2 2 2 2 2 2 2 2 3 3 3 4 5 4 4 5 5 5 5 5 6 5 5 4 4 5 4 5 5 5 4 3 3 3 2 2 3 2
3 2 1 2 1 1 1 0 1 1 2 2 2 2 3 4 4 4 5 5 5 5 5 6 6 6 6 5 5 5 5 5 5 4 5 5 4 3 3 3 3 3 3
3 2 1 1 1 0 0 0 1 1 2 3 3 3 4 4 4 4 6 5 5 6 6 6 6 6 7 6 5 6 6 6 6 6 6 7 5 4 3 3 3 3 3
3 2 2 1 0 1 1 2 2 2 3 3 3 4 4 4 5 6 6 6 6 6 6 7 7 7 7 6 6 7 7 7 7 7 7 8 6 6 5 4 4 3 3
3 2 1 1 2 2 3 3 3 3 4 3 3 4 5 5 6 6 6 6 6 7 7 6 7 8 8 8 8 8 8 8 8 8 8 8 7 8 6 5 5 4 4
3 2 2 3 3 3 3 4 4 4 4 3 4 5 6 6 6 6 6 6 6 7 7 7 7 8 8 9 9 8 8 8 8 8 9 9 9 9 8 7 6 5 5
4 4 4 3 3 4 4 4 4 4 3 4 5 6 6 6 6 6 7 7 7 8 7 8 8 8 7 8 8 8 9 8 8 8 8 9 11 13 10 7 7 6 5
6 5 5 4 4 4 4 4 5 4 3 4 6 6 6 6 7 7 7 7 8 8 7 8 9 9 8 9 12 10 8 8 9 9 8 9 11 13 14 14 13 11 8
6 6 6 5 5 5 4 5 5 4 4 5 6 6 6 7 8 8 8 8 8 7 8 8 8 9 10 13 14 14 9 9 9 9 9 8 8 9 9 11 13 13 14
7 6 5 5 4 4 4 4 4 4 5 6 7 7 7 8 8 8 8 8 7 7 8 9 9 9 10 13 13 14 10 9 10 10 10 10 9 9 8 8 9 9 10
7 6 5 4 4 5 4 4 4 5 5 6 7 7 7 8 8 9 9 8 7 8 8 8 9 9 11 12 12 11 7 7 10 10 10 10 10 11 11 9 9 8 7
5 5 4 3 4 5 3 3 5 5 6 7 7 8 7 8 9 9 9 7 7 8 8 9 8 9 10 11 12 10 5 7 8 7 8 11 12 11 12 10 9 10 8
6 5 4 4 5 4 2 4 5 6 7 7 7 8 7 8 8 8 7 8 7 8 8 9 8 7 8 10 11 10 5 6 7 6 6 7 10 12 13 11 9 10 8
5 5 4 5 4 3 3 5 6 7 6 6 7 8 8 7 7 7 8 7 7 7 8 7 8 6 6 7 8 9 8 8 7 7 6 6 9 11 12 10 9 10 9
6 4 5 5 5 4 4 6 6 5 6 6 7 8 8 7 7 7 8 7 6 5 6 6 6 7 5 5 8 9 9 9 7 6 8 8 9 9 8 10 10 9 6
6 5 5 5 5 5 5 6 6 5 5 7 8 7 7 8 7 6 5 6 6 6 6 6 6 6 6 5 4 5 5 6 5 5 5 7 7 6 5 5 7 6 6
5 5 6 6 7 5 5 5 5 4 5 7 7 7 6 7 7 7 6 6 6 6 6 6 6 6 7 6 7 6 5 5 4 3 2 2 3 4 4 4 5 6 6
5 5 6 6 6 5 6 5 4 4 5 6 6 6 6 6 6 7 7 7 8 10 10 10 9 7 9 11 11 10 9 8 5 3 3 3 4 5 5 5 5 5 6
Wind_Direction
115 103 111 116 114 114 117 122 127 134 132 121 125 128 141 214 330 318 325 331 323 327 283 271 275 276 270 277 287 284 286 278 266 269 272 260 242 235 230 228 229 229 226
126 134 147 146 147 147 145 146 155 160 157 149 150 152 149 179 216 304 327 320 320 310 294 276 274 269 270 282 279 268 281 279 263 251 273 287 279 242 231 222 223 228 224
179 186 186 192 184 185 188 178 180 170 161 140 106 80 58 29 358 321 305 303 309 307 290 278 268 260 244 258 263 249 251 274 273 232 239 256 269 297 264 228 223 222 220
189 195 199 210 216 217 208 199 189 168 135 123 130 149 166 215 242 256 281 299 303 303 299 286 272 263 249 250 257 247 242 252 276 274 242 244 253 270 297 281 229 223 225
206 209 212 216 223 220 213 208 185 231 252 147 167 181 233 242 267 276 287 295 302 301 299 292 283 274 261 255 255 253 243 238 250 262 262 255 247 237 251 276 275 244 234
213 221 225 219 225 211 199 191 193 247 257 233 219 221 249 265 280 284 289 293 297 299 296 291 281 272 263 257 255 250 245 239 248 252 252 253 256 248 241 255 271 270 262
212 217 218 219 220 215 208 190 188 245 268 263 264 256 256 259 261 271 276 284 288 287 288 293 283 277 267 262 254 247 246 236 238 242 247 249 250 255 258 258 268 272 284
206 208 214 214 212 205 194 184 191 232 268 272 279 278 264 255 259 262 261 265 264 269 277 281 277 274 273 272 259 249 249 241 238 245 243 248 256 246 249 255 263 273 272
206 204 202 189 179 173 181 191 197 235 272 282 290 292 286 273 272 277 271 267 266 272 275 277 279 280 277 271 263 252 251 247 243 245 245 243 250 248 246 248 246 245 254
193 188 173 162 163 170 184 149 184 248 278 290 286 289 290 286 282 284 281 277 277 278 285 284 281 281 278 272 262 258 255 250 249 243 244 245 244 244 242 241 244 240 236
185 173 153 149 146 66 6 309 301 289 294 296 296 299 295 295 295 286 281 281 282 284 283 282 282 281 277 272 262 259 257 250 253 249 241 244 241 239 238 233 236 240 237
156 154 160 161 259 301 304 301 297 291 285 287 291 291 292 296 294 288 285 284 282 282 280 282 282 280 278 271 263 263 261 251 250 250 243 246 242 236 234 228 231 232 227
146 151 171 256 281 291 297 296 292 286 289 293 295 297 297 294 289 286 287 287 284 285 285 282 280 280 278 275 268 263 261 255 251 249 246 246 239 237 231 226 228 229 227
175 193 234 260 275 284 285 285 287 286 289 292 292 290 289 286 284 285 286 286 285 285 284 281 278 276 276 274 271 266 262 258 255 250 246 245 237 235 230 226 224 221 221
217 227 238 255 271 278 280 278 282 287 288 290 288 283 285 286 287 288 287 287 285 285 281 282 281 278 274 269 266 262 263 258 258 255 248 246 244 238 230 225 217 211 211
233 243 251 258 261 262 268 278 281 283 285 284 282 285 289 292 291 290 290 290 288 286 284 281 281 280 276 276 274 272 266 261 257 257 255 253 256 251 239 230 220 207 203
235 242 248 248 251 254 257 264 270 282 287 284 285 288 290 292 291 293 295 291 288 285 286 284 281 278 275 272 273 272 268 259 255 253 251 252 249 242 239 234 229 221 213
233 239 241 245 248 249 256 265 275 283 286 287 288 290 292 293 293 293 291 288 285 284 283 282 282 279 277 275 272 272 268 260 256 250 245 244 247 242 232 233 230 225 220
221 226 229 228 240 255 261 272 281 287 289 287 288 291 292 294 295 294 291 289 288 289 285 283 282 281 282 280 277 274 267 260 259 254 247 241 242 239 229 226 225 226 228
219 224 227 223 243 256 260 267 279 286 283 283 287 291 291 289 289 288 288 287 286 286 290 288 283 280 281 283 282 279 261 260 260 256 251 244 240 237 223 219 217 220 220
220 219 216 225 242 253 251 264 277 275 274 282 289 293 291 288 285 284 284 288 290 292 292 292 290 285 282 287 286 283 260 253 255 254 251 245 237 233 225 215 216 217 205
222 213 214 238 253 248 234 260 269 269 280 288 293 295 294 293 295 292 292 291 290 294 296 297 300 294 288 284 290 290 275 259 251 252 250 247 240 232 223 216 216 206 192
218 210 210 237 258 247 222 247 263 276 287 293 294 296 300 298 294 291 295 298 295 291 295 296 297 300 299 293 291 295 291 279 258 251 249 249 242 230 223 220 208 194 191
215 206 204 229 251 254 242 241 262 277 287 292 297 299 303 304 305 298 290 290 293 294 294 294 292 295 297 299 306 308 303 294 277 261 257 249 235 219 209 202 201 198 192
211 201 209 227 245 254 256 257 260 272 284 291 295 299 299 300 305 304 293 286 276 267 273 281 278 285 294 294 300 299 295 292 282 271 249 220 202 203 201 198 196 192 186
205 207 219 231 244 249 257 264 261 259 274 290 298 299 302 305 306 309 310 291 275 280 270 258 257 265 263 282 294 294 288 285 274 246 235 223 215 212 203 197 192 190 188